CW9443 Weather Reports


Display with metric or nautical units.
time (UTC)temp
F
wind
direction
speed
MPH
gust
MPH
rain 1hr
in
rain 24hr
in
rain mn
in
humidity
%
barometer
mb
20260905170012 75 236 0.0 0.0 0.00 0.00 0.00 53 1012.9
20260905164509 74 236 0.0 0.0 0.00 0.00 0.00 61 1012.8
20260905163003 73 236 0.0 0.0 0.00 0.00 0.00 67 1012.7
20260905161501 72 236 0.0 0.0 0.00 0.00 0.00 70 1012.7
20260905160133 71 236 0.0 0.0 0.00 0.00 0.00 72 1012.7
20260905154602 70 236 0.0 0.0 0.00 0.00 0.00 74 1012.6
20260905153048 68 236 0.0 0.0 0.00 0.00 0.00 78 1012.6
20260905151546 65 236 0.0 0.0 0.00 0.00 0.00 85 1012.4
20260905150040 63 236 0.0 0.0 0.00 0.00 0.00 88 1012.5
20260905144539 62 236 0.0 0.0 0.00 0.00 0.00 90 1012.3
20260905143035 61 236 0.0 0.0 0.00 0.00 0.00 93 1012.2
20260905141530 59 236 0.0 0.0 0.00 0.00 0.00 92 1012.0
20260905140028 59 236 0.0 0.0 0.00 0.00 0.00 91 1011.8
20260905134529 59 236 0.0 0.0 0.00 0.00 0.00 91 1011.6
20260905133023 59 236 0.0 0.0 0.00 0.00 0.00 91 1011.4
20260905131522 59 236 0.0 0.0 0.00 0.00 0.00 91 1011.3
20260905130021 59 236 0.0 0.0 0.00 0.00 0.00 91 1011.2
20260905124534 59 236 0.0 0.0 0.00 0.00 0.00 91 1011.3
20260905123019 59 236 0.0 0.0 0.00 0.00 0.00 91 1011.3
20260905121519 59 236 0.0 0.0 0.00 0.00 0.00 92 1011.2
20260905120018 59 236 0.0 0.0 0.00 0.00 0.00 92 1011.2
20260905114519 59 236 0.0 0.0 0.00 0.00 0.00 92 1011.2
20260905113016 59 236 0.0 0.0 0.00 0.00 0.00 91 1011.2
20260905111517 59 236 0.0 0.0 0.00 0.00 0.00 91 1011.3
20260905110013 60 236 0.0 0.0 0.00 0.00 0.00 92 1011.3
20260905104511 60 236 0.0 0.0 0.00 0.00 0.00 92 1011.3
20260905103017 60 236 0.0 0.0 0.00 0.00 0.00 92 1011.2
20260905101512 60 236 0.0 0.0 0.00 0.00 0.00 92 1011.3
20260905100013 60 236 0.0 0.0 0.00 0.00 0.00 92 1011.3
20260905094512 60 236 0.0 0.0 0.00 0.00 0.00 91 1011.4
20260905093010 60 236 0.0 0.0 0.00 0.00 0.00 91 1011.5
20260905091520 61 236 0.0 0.0 0.00 0.00 0.00 91 1011.4
20260905090009 61 236 0.0 0.0 0.00 0.00 0.00 91 1011.6
20260905084508 62 236 0.0 0.0 0.00 0.00 0.00 91 1011.8
20260905083007 62 236 0.0 0.0 0.00 0.00 0.00 90 1011.8
20260905081508 62 236 0.0 0.0 0.00 0.00 0.00 91 1011.9
20260905080007 63 236 0.0 0.0 0.00 0.00 0.00 90 1012.1
20260905074511 63 236 0.0 0.0 0.00 0.00 0.00 91 1012.0
20260905073006 63 236 0.0 0.0 0.00 0.00 0.00 90 1012.0
20260905071508 63 236 0.0 0.0 0.00 0.00 0.00 90 1012.0
20260905070005 63 236 0.0 0.0 0.00 0.00 0.00 90 1011.8
20260905064505 63 236 0.0 0.0 0.00 0.00 0.00 90 1011.7
20260905063004 63 236 0.0 0.0 0.00 0.00 0.00 89 1011.5
20260905061504 63 236 0.0 0.0 0.00 0.00 0.00 88 1011.6
20260905060006 63 236 0.0 0.0 0.00 0.00 0.00 88 1011.5
20260905054507 63 236 0.0 0.0 0.00 0.00 0.00 88 1011.5
20260905053003 63 236 0.0 0.0 0.00 0.00 0.00 87 1011.6
20260905051511 64 236 0.0 0.0 0.00 0.00 0.00 87 1011.6
20260905050005 64 236 0.0 0.0 0.00 0.00 0.00 87 1011.8
20260905044503 64 236 0.0 0.0 0.00 0.00 0.00 86 1011.7
20260905043059 65 236 0.0 0.0 0.00 0.00 0.00 85 1011.6
20260905041602 65 236 0.0 0.0 0.00 0.00 0.00 85 1011.4
20260905040057 65 236 0.0 0.0 0.00 0.00 0.00 85 1011.3
20260905034610 66 236 0.0 0.0 0.00 0.00 0.00 85 1011.3
20260905033057 66 236 0.0 0.0 0.00 0.00 0.00 83 1011.2
20260905031555 67 236 0.0 0.0 0.00 0.00 0.00 81 1010.9
20260905030052 68 236 0.0 0.0 0.00 0.00 0.00 80 1010.9
20260905024552 68 236 0.0 0.0 0.00 0.00 0.00 78 1010.9
20260905023050 69 236 0.0 0.0 0.00 0.00 0.00 75 1010.8
20260905021555 70 236 0.0 0.0 0.00 0.00 0.00 74 1010.8
20260905020052 71 236 0.0 0.0 0.00 0.00 0.00 73 1010.8
20260905014549 72 236 0.0 0.0 0.00 0.00 0.00 70 1010.8
20260905013048 73 236 0.0 0.0 0.00 0.00 0.00 67 1010.9
20260905011547 74 236 0.0 0.0 0.00 0.00 0.00 66 1011.0
20260905010047 74 236 0.0 0.0 0.00 0.00 0.00 66 1011.0
20260905004550 74 234 0.0 0.0 0.00 0.00 0.00 65 1010.9
20260905003043 75 227 0.0 0.0 0.00 0.00 0.00 64 1010.9
20260905001553 75 219 0.0 0.0 0.00 0.00 0.00 64 1010.9
20260905000042 75 223 1.0 0.0 0.00 0.00 0.00 64 1010.8
20260904234543 76 221 0.0 0.0 0.00 0.00 0.00 64 1010.9
20260904233043 77 220 0.0 0.0 0.00 0.00 0.00 63 1010.8
20260904231550 77 238 1.0 0.0 0.00 0.00 0.00 63 1010.9
20260904230039 77 220 0.0 0.0 0.00 0.00 0.00 62 1010.9
20260904224546 78 237 1.0 0.0 0.00 0.00 0.00 61 1010.8
20260904223033 78 238 1.0 0.0 0.00 0.00 0.00 61 1010.8
20260904221529 78 243 2.0 0.0 0.00 0.00 0.00 61 1010.9
20260904220029 78 200 2.0 0.0 0.00 0.00 0.00 61 1011.0
20260904214530 79 227 2.0 0.0 0.00 0.00 0.00 60 1011.0
20260904213027 79 248 1.0 0.0 0.00 0.00 0.00 60 1010.9
20260904211525 79 248 2.0 0.0 0.00 0.00 0.00 60 1010.9
20260904210024 80 256 2.0 0.0 0.00 0.00 0.00 59 1010.9
20260904204525 81 259 2.0 0.0 0.00 0.00 0.00 56 1010.9
20260904203020 81 237 2.0 0.0 0.00 0.00 0.00 55 1011.0
20260904201519 81 230 1.0 0.0 0.00 0.00 0.00 54 1011.1
20260904200023 81 241 1.0 0.0 0.00 0.00 0.00 53 1011.2
20260904194517 81 225 1.0 0.0 0.00 0.00 0.00 52 1011.3
20260904193014 80 232 0.0 0.0 0.00 0.00 0.00 52 1011.5
20260904191512 79 230 0.0 0.0 0.00 0.00 0.00 54 1011.5
20260904190011 79 257 0.0 0.0 0.00 0.00 0.00 54 1011.7
20260904184509 78 257 0.0 0.0 0.00 0.00 0.00 55 1011.9
20260904183012 78 264 0.0 0.0 0.00 0.00 0.00 54 1012.1
20260904181514 76 264 0.0 0.0 0.00 0.00 0.00 55 1012.3
20260904180004 77 275 0.0 0.0 0.00 0.00 0.00 54 1012.3
20260904174505 76 275 0.0 0.0 0.00 0.00 0.00 56 1012.3
20260904173105 75 275 0.0 0.0 0.00 0.00 0.00 56 1012.4
20260904171556 75 272 0.0 0.0 0.00 0.00 0.00 60 1012.3